Orbital Elements at Epoch 2459000.5 (2020-May-31.0) TDB
Reference: JPL 20 (heliocentric ecliptic J2000)
Element | Value | Uncertainty (1-sigma) | Units |
e | .1499631087866793 | 5.3718e-08 | |
a | 2.586659194027527 | 1.5045e-08 | au |
q | 2.198755739919513 | 1.421e-07 | au |
i | 6.01329630777955 | 4.1284e-06 | deg |
node | 126.4064419354844 | 5.36e-05 | deg |
peri | 67.24471893500589 | 5.5322e-05 | deg |
M | 3.472434558077991 | 1.2507e-05 | deg |
tp | 2458985.843211745626 (2020-May-16.34321175) | 5.2782e-05 | TDB |
period | 1519.522883246237 4.16 | 1.3258e-05 3.63e-08 | d yr |
n | .236916471590683 | 2.0671e-09 | deg/d |
Q | 2.974562648135542 | 1.7302e-08 | au |
|
| | Orbit Determination Parameters
Additional Information
|